Location: Unspecified
(46.0725°N, 13.7344°E)
Time: 09:11:06
(UTC+02:00)

Cosmos 2058 - Pass Details

Date: 16 June 2024
Orbit: 545 x 564 km, 82.5° (Epoch: 17 July)

Event Time Altitude Azimuth Distance (km) Brightness Sun altitude
Exits shadow 03:09:43 - 144° (SE) 2,460 5.9 -15.1°
Reaches altitude 10° 03:11:40 10° 129° (SE) 1,837 5.4 -14.9°
Maximum altitude 03:14:25 18° 86° (E) 1,410 5.3 -14.7°
Drops below altitude 10° 03:17:11 10° 43° (NE) 1,857 6.8 -14.4°
Sets 03:19:55 0° 25° (NNE) 2,763 8.3 -14.2°
